Private Wetterstation Wechselburg
Wetterdaten: Freitag, 13.06.2014
Datum Zeit Temp. +2m Bodentemp. Temp.+5cm Temp. Wind Windchill X Diff Temp. Feuchte +2m Feuchte +5cm Sonnenschein Luftdruck Regen Wind Richtung Richtung Sonnenschein UV Taupunkt Windchill Windben
13.06.2014 00:00 14,0 C 27,4 C 14,3 C 13,4 C 12,3 C 0,0 C 76 % 78 % 0 % 1021,5 hPa 0,0 l/m 0,0 km/h (0 Bft) S-SW 202 0 min 0,0 UV-I 9,8 C 12,3 C 0,0 km/h (0 Bft)
13.06.2014 00:05 13,9 C 27,4 C 14,2 C 13,3 C 12,2 C 0,0 C 76 % 78 % 0 % 1021,5 hPa 0,0 l/m 0,0 km/h (0 Bft) W-NW 292 0 min 0,0 UV-I 9,7 C 12,2 C 0,0 km/h (0 Bft)
13.06.2014 00:10 13,7 C 27,4 C 14,1 C 13,1 C 12,0 C 0,0 C 77 % 78 % 0 % 1021,5 hPa 0,0 l/m 0,0 km/h (0 Bft) W-NW 292 0 min 0,0 UV-I 9,7 C 12,0 C 0,0 km/h (0 Bft)
13.06.2014 00:15 13,6 C 27,4 C 14,1 C 13,0 C 11,8 C 0,0 C 77 % 79 % 0 % 1021,5 hPa 0,0 l/m 0,0 km/h (0 Bft) W-NW 292 0 min 0,0 UV-I 9,6 C 11,8 C 0,0 km/h (0 Bft)
13.06.2014 00:20 13,5 C 27,4 C 14,0 C 12,9 C 11,6 C 0,0 C 78 % 79 % 0 % 1021,4 hPa 0,0 l/m 0,0 km/h (0 Bft) S 180 0 min 0,0 UV-I 9,7 C 11,6 C 0,0 km/h (0 Bft)
13.06.2014 00:25 13,4 C 27,4 C 13,8 C 12,8 C 11,5 C 0,0 C 78 % 79 % 0 % 1021,4 hPa 0,0 l/m 0,0 km/h (0 Bft) S 180 0 min 0,0 UV-I 9,6 C 11,5 C 0,0 km/h (0 Bft)
13.06.2014 00:30 13,2 C 27,4 C 13,6 C 12,6 C 11,4 C 0,0 C 79 % 79 % 0 % 1021,4 hPa 0,0 l/m 0,0 km/h (0 Bft) S 180 0 min 0,0 UV-I 9,6 C 11,4 C 0,0 km/h (0 Bft)
13.06.2014 00:35 13,1 C 27,4 C 13,6 C 12,5 C 11,4 C 0,0 C 79 % 79 % 0 % 1021,4 hPa 0,0 l/m 0,0 km/h (0 Bft) S-SW 202 0 min 0,0 UV-I 9,5 C 11,4 C 0,0 km/h (0 Bft)
13.06.2014 00:40 13,1 C 27,4 C 13,5 C 12,5 C 11,2 C 0,0 C 80 % 80 % 0 % 1021,7 hPa 0,0 l/m 0,0 km/h (0 Bft) S 180 0 min 0,0 UV-I 9,7 C 11,2 C 0,0 km/h (0 Bft)
13.06.2014 00:45 12,9 C 27,4 C 13,5 C 12,3 C 11,1 C 0,0 C 80 % 80 % 0 % 1021,7 hPa 0,0 l/m 0,0 km/h (0 Bft) S 180 0 min 0,0 UV-I 9,5 C 11,1 C 0,0 km/h (0 Bft)
13.06.2014 00:50 12,7 C 27,3 C 13,3 C 12,1 C 11,0 C 0,0 C 80 % 80 % 0 % 1021,7 hPa 0,0 l/m 0,0 km/h (0 Bft) S 180 0 min 0,0 UV-I 9,3 C 11,0 C 0,0 km/h (0 Bft)
13.06.2014 00:55 12,7 C 27,3 C 13,3 C 12,1 C 10,8 C 0,0 C 81 % 80 % 0 % 1021,7 hPa 0,0 l/m 0,0 km/h (0 Bft) S-SW 202 0 min 0,0 UV-I 9,5 C 10,8 C 0,0 km/h (0 Bft)
13.06.2014 01:00 12,5 C 27,3 C 13,0 C 11,9 C 10,6 C 0,0 C 81 % 80 % 0 % 1021,6 hPa 0,0 l/m 0,0 km/h (0 Bft) S-SW 202 0 min 0,0 UV-I 9,3 C 10,6 C 0,0 km/h (0 Bft)
13.06.2014 01:05 12,5 C 27,3 C 13,0 C 11,8 C 10,5 C 0,0 C 81 % 81 % 0 % 1021,6 hPa 0,0 l/m 0,0 km/h (0 Bft) S 180 0 min 0,0 UV-I 9,3 C 10,5 C 0,0 km/h (0 Bft)
13.06.2014 01:10 12,2 C 27,4 C 12,8 C 11,6 C 10,3 C 0,0 C 81 % 81 % 0 % 1021,6 hPa 0,0 l/m 0,0 km/h (0 Bft) S 180 0 min 0,0 UV-I 9,0 C 10,3 C 0,0 km/h (0 Bft)
13.06.2014 01:15 12,2 C 27,4 C 12,8 C 11,6 C 10,3 C 0,0 C 81 % 81 % 0 % 1021,6 hPa 0,0 l/m 0,0 km/h (0 Bft) S 180 0 min 0,0 UV-I 9,0 C 10,3 C 0,0 km/h (0 Bft)
13.06.2014 01:20 12,1 C 27,4 C 12,7 C 11,5 C 10,4 C 0,0 C 82 % 81 % 0 % 1021,6 hPa 0,0 l/m 0,0 km/h (0 Bft) S 180 0 min 0,0 UV-I 9,1 C 10,4 C 0,0 km/h (0 Bft)
13.06.2014 01:25 12,0 C 27,4 C 12,7 C 11,4 C 10,3 C 0,0 C 82 % 81 % 0 % 1021,6 hPa 0,0 l/m 0,0 km/h (0 Bft) SW 225 0 min 0,0 UV-I 9,0 C 10,3 C 0,0 km/h (0 Bft)
13.06.2014 01:30 11,9 C 27,4 C 12,6 C 11,3 C 10,2 C 0,0 C 82 % 82 % 0 % 1021,6 hPa 0,0 l/m 0,0 km/h (0 Bft) SW 225 0 min 0,0 UV-I 8,9 C 10,2 C 0,0 km/h (0 Bft)
13.06.2014 01:35 11,7 C 27,4 C 12,5 C 11,2 C 10,2 C 0,0 C 83 % 82 % 0 % 1021,6 hPa 0,0 l/m 0,0 km/h (0 Bft) S-SW 202 0 min 0,0 UV-I 8,9 C 10,2 C 0,0 km/h (0 Bft)
13.06.2014 01:40 11,6 C 27,3 C 12,5 C 11,1 C 10,0 C 0,0 C 83 % 82 % 0 % 1021,6 hPa 0,0 l/m 0,0 km/h (0 Bft) S 180 0 min 0,0 UV-I 8,8 C 10,0 C 0,0 km/h (0 Bft)
13.06.2014 01:45 11,5 C 27,4 C 12,3 C 11,0 C 10,0 C 0,0 C 83 % 82 % 0 % 1021,6 hPa 0,0 l/m 0,0 km/h (0 Bft) S 180 0 min 0,0 UV-I 8,7 C 10,0 C 0,0 km/h (0 Bft)
13.06.2014 01:50 11,5 C 27,4 C 12,3 C 11,0 C 10,0 C 0,0 C 83 % 82 % 0 % 1021,6 hPa 0,0 l/m 0,0 km/h (0 Bft) S 180 0 min 0,0 UV-I 8,7 C 10,0 C 0,0 km/h (0 Bft)
13.06.2014 01:55 11,3 C 27,4 C 12,3 C 10,9 C 10,0 C 0,0 C 83 % 83 % 0 % 1021,6 hPa 0,0 l/m 0,0 km/h (0 Bft) S 180 0 min 0,0 UV-I 8,5 C 10,0 C 0,0 km/h (0 Bft)
13.06.2014 02:00 11,1 C 27,4 C 12,1 C 10,8 C 10,1 C 0,0 C 84 % 83 % 0 % 1021,4 hPa 0,0 l/m 0,0 km/h (0 Bft) S 180 0 min 0,0 UV-I 8,5 C 10,1 C 0,0 km/h (0 Bft)
13.06.2014 02:05 11,1 C 27,3 C 12,1 C 10,8 C 10,1 C 0,0 C 84 % 83 % 0 % 1021,4 hPa 0,0 l/m 0,0 km/h (0 Bft) S 180 0 min 0,0 UV-I 8,5 C 10,1 C 0,0 km/h (0 Bft)
13.06.2014 02:10 10,9 C 27,3 C 12,1 C 10,6 C 10,1 C 0,0 C 84 % 83 % 0 % 1021,4 hPa 0,0 l/m 0,0 km/h (0 Bft) S 180 0 min 0,0 UV-I 8,3 C 10,1 C 0,0 km/h (0 Bft)
13.06.2014 02:15 10,8 C 27,3 C 12,1 C 10,6 C 10,1 C 0,0 C 84 % 83 % 0 % 1021,4 hPa 0,0 l/m 0,0 km/h (0 Bft) S 180 0 min 0,0 UV-I 8,2 C 10,1 C 0,0 km/h (0 Bft)
13.06.2014 02:20 10,7 C 27,3 C 12,0 C 10,5 C 10,0 C 0,0 C 84 % 83 % 0 % 1020,9 hPa 0,0 l/m 0,0 km/h (0 Bft) S 180 0 min 0,0 UV-I 8,1 C 10,0 C 0,0 km/h (0 Bft)
13.06.2014 02:25 10,7 C 27,3 C 12,0 C 10,5 C 10,1 C 0,0 C 85 % 84 % 0 % 1020,9 hPa 0,0 l/m 0,0 km/h (0 Bft) S 180 0 min 0,0 UV-I 8,3 C 10,1 C 0,0 km/h (0 Bft)
13.06.2014 02:30 10,5 C 27,3 C 12,1 C 10,4 C 10,1 C 0,0 C 85 % 84 % 0 % 1020,9 hPa 0,0 l/m 0,0 km/h (0 Bft) S 180 0 min 0,0 UV-I 8,1 C 10,1 C 0,0 km/h (0 Bft)
13.06.2014 02:35 10,5 C 27,3 C 12,0 C 10,4 C 10,1 C 0,0 C 85 % 84 % 0 % 1020,9 hPa 0,0 l/m 0,0 km/h (0 Bft) S 180 0 min 0,0 UV-I 8,1 C 10,1 C 0,0 km/h (0 Bft)
13.06.2014 02:40 10,4 C 27,2 C 11,8 C 10,2 C 9,9 C 0,0 C 85 % 84 % 0 % 1020,8 hPa 0,0 l/m 0,0 km/h (0 Bft) S 180 0 min 0,0 UV-I 8,0 C 9,9 C 0,0 km/h (0 Bft)
13.06.2014 02:45 10,4 C 27,2 C 11,9 C 10,2 C 9,8 C 0,0 C 85 % 84 % 0 % 1020,8 hPa 0,0 l/m 0,0 km/h (0 Bft) S 180 0 min 0,0 UV-I 8,0 C 9,8 C 0,0 km/h (0 Bft)
13.06.2014 02:50 10,3 C 27,2 C 11,6 C 10,1 C 9,6 C 0,0 C 85 % 84 % 0 % 1020,8 hPa 0,0 l/m 0,0 km/h (0 Bft) S 180 0 min 0,0 UV-I 7,9 C 9,6 C 0,0 km/h (0 Bft)
13.06.2014 02:55 10,2 C 27,2 C 11,6 C 10,0 C 9,5 C 0,0 C 85 % 84 % 0 % 1020,8 hPa 0,0 l/m 0,0 km/h (0 Bft) S 180 0 min 0,0 UV-I 7,8 C 9,5 C 0,0 km/h (0 Bft)
13.06.2014 03:00 10,0 C 27,1 C 11,5 C 9,8 C 9,5 C 0,0 C 85 % 84 % 0 % 1020,7 hPa 0,0 l/m 0,0 km/h (0 Bft) S-SW 202 0 min 0,0 UV-I 7,6 C 9,5 C 0,0 km/h (0 Bft)
13.06.2014 03:05 10,1 C 27,2 C 11,5 C 9,9 C 9,4 C 0,0 C 85 % 84 % 0 % 1020,7 hPa 0,0 l/m 0,0 km/h (0 Bft) S 180 0 min 0,0 UV-I 7,7 C 9,4 C 0,0 km/h (0 Bft)
13.06.2014 03:10 9,9 C 27,2 C 11,5 C 9,7 C 9,4 C 0,0 C 85 % 84 % 0 % 1020,7 hPa 0,0 l/m 0,0 km/h (0 Bft) S 180 0 min 0,0 UV-I 7,5 C 9,4 C 0,0 km/h (0 Bft)
13.06.2014 03:15 9,9 C 27,2 C 11,5 C 9,7 C 9,3 C 0,0 C 85 % 84 % 0 % 1020,7 hPa 0,0 l/m 0,0 km/h (0 Bft) S-SO 157 0 min 0,0 UV-I 7,5 C 9,3 C 0,0 km/h (0 Bft)
13.06.2014 03:20 9,9 C 27,1 C 11,3 C 9,7 C 9,4 C 0,0 C 85 % 84 % 0 % 1020,8 hPa 0,0 l/m 0,0 km/h (0 Bft) S-SW 202 0 min 0,0 UV-I 7,5 C 9,4 C 0,0 km/h (0 Bft)
13.06.2014 03:25 9,7 C 27,1 C 11,3 C 9,6 C 9,3 C 0,0 C 85 % 84 % 0 % 1020,8 hPa 0,0 l/m 0,0 km/h (0 Bft) S 180 0 min 0,0 UV-I 7,3 C 9,3 C 0,0 km/h (0 Bft)
13.06.2014 03:30 9,6 C 27,1 C 11,3 C 9,5 C 9,3 C 0,0 C 85 % 84 % 0 % 1020,8 hPa 0,0 l/m 0,0 km/h (0 Bft) S 180 0 min 0,0 UV-I 7,2 C 9,3 C 0,0 km/h (0 Bft)
13.06.2014 03:35 9,6 C 27,1 C 11,3 C 9,5 C 9,3 C 0,0 C 85 % 84 % 0 % 1020,8 hPa 0,0 l/m 0,0 km/h (0 Bft) S 180 0 min 0,0 UV-I 7,2 C 9,3 C 0,0 km/h (0 Bft)
13.06.2014 03:40 9,5 C 27,1 C 11,2 C 9,4 C 9,2 C 0,0 C 85 % 84 % 0 % 1020,8 hPa 0,0 l/m 0,0 km/h (0 Bft) S-SO 157 0 min 0,0 UV-I 7,1 C 9,2 C 0,0 km/h (0 Bft)
13.06.2014 03:45 9,5 C 27,1 C 11,1 C 9,4 C 9,3 C 0,0 C 86 % 84 % 0 % 1020,8 hPa 0,0 l/m 0,0 km/h (0 Bft) S-SO 157 0 min 0,0 UV-I 7,3 C 9,3 C 0,0 km/h (0 Bft)
13.06.2014 03:50 9,4 C 27,2 C 11,1 C 9,4 C 9,3 C 0,0 C 86 % 84 % 0 % 1020,8 hPa 0,0 l/m 0,0 km/h (0 Bft) S-SO 157 0 min 0,0 UV-I 7,2 C 9,3 C 0,0 km/h (0 Bft)
13.06.2014 03:55 9,5 C 27,1 C 11,1 C 9,4 C 9,3 C 0,0 C 86 % 84 % 0 % 1020,8 hPa 0,0 l/m 0,0 km/h (0 Bft) S-SO 157 0 min 0,0 UV-I 7,3 C 9,3 C 0,0 km/h (0 Bft)
13.06.2014 04:00 9,3 C 27,0 C 11,1 C 9,3 C 9,2 C 0,0 C 86 % 85 % 0 % 1020,8 hPa 0,0 l/m 0,0 km/h (0 Bft) SW 225 0 min 0,0 UV-I 7,1 C 9,2 C 0,0 km/h (0 Bft)
13.06.2014 04:05 9,3 C 27,0 C 11,1 C 9,3 C 9,3 C 0,0 C 86 % 85 % 0 % 1020,8 hPa 0,0 l/m 0,0 km/h (0 Bft) O-SO 112 0 min 0,0 UV-I 7,1 C 9,3 C 0,0 km/h (0 Bft)
13.06.2014 04:10 9,3 C 27,1 C 11,1 C 9,3 C 9,3 C 0,0 C 87 % 85 % 0 % 1020,8 hPa 0,0 l/m 0,0 km/h (0 Bft) O-SO 112 0 min 0,0 UV-I 7,2 C 9,3 C 0,0 km/h (0 Bft)
13.06.2014 04:15 9,3 C 27,1 C 11,1 C 9,3 C 9,3 C 0,0 C 87 % 85 % 0 % 1020,8 hPa 0,0 l/m 0,0 km/h (0 Bft) O-SO 112 0 min 0,0 UV-I 7,2 C 9,3 C 0,0 km/h (0 Bft)
13.06.2014 04:20 9,3 C 27,0 C 11,0 C 9,3 C 9,2 C 0,0 C 87 % 85 % 0 % 1020,8 hPa 0,0 l/m 0,0 km/h (0 Bft) O-SO 112 0 min 0,0 UV-I 7,2 C 9,2 C 0,0 km/h (0 Bft)
13.06.2014 04:25 9,2 C 27,0 C 11,1 C 9,2 C 9,2 C 0,0 C 87 % 85 % 0 % 1020,8 hPa 0,0 l/m 0,0 km/h (0 Bft) SO 135 0 min 0,0 UV-I 7,2 C 9,2 C 0,0 km/h (0 Bft)
13.06.2014 04:30 9,2 C 27,0 C 10,9 C 9,2 C 9,1 C 0,0 C 87 % 85 % 0 % 1020,8 hPa 0,0 l/m 0,0 km/h (0 Bft) W-SW 247 0 min 0,0 UV-I 7,2 C 9,1 C 0,0 km/h (0 Bft)
13.06.2014 04:35 9,2 C 26,9 C 10,9 C 9,2 C 9,1 C 0,0 C 87 % 85 % 0 % 1020,8 hPa 0,0 l/m 0,0 km/h (0 Bft) SW 225 0 min 0,0 UV-I 7,2 C 9,1 C 0,0 km/h (0 Bft)
13.06.2014 04:40 9,1 C 26,9 C 10,8 C 9,1 C 9,1 C 0,0 C 87 % 85 % 0 % 1020,7 hPa 0,0 l/m 0,0 km/h (0 Bft) S 180 0 min 0,0 UV-I 7,1 C 9,1 C 0,0 km/h (0 Bft)
13.06.2014 04:45 9,1 C 26,9 C 10,8 C 9,1 C 9,1 C 0,0 C 87 % 85 % 0 % 1020,7 hPa 0,0 l/m 0,0 km/h (0 Bft) SO 135 0 min 0,0 UV-I 7,1 C 9,1 C 0,0 km/h (0 Bft)
13.06.2014 04:50 9,0 C 26,9 C 10,8 C 9,1 C 9,1 C 0,1 C 87 % 85 % 0 % 1020,7 hPa 0,0 l/m 0,0 km/h (0 Bft) SO 135 0 min 0,0 UV-I 7,0 C 9,1 C 0,0 km/h (0 Bft)
13.06.2014 04:55 9,0 C 26,9 C 10,8 C 9,0 C 9,0 C 0,0 C 87 % 85 % 0 % 1020,7 hPa 0,0 l/m 0,0 km/h (0 Bft) O-SO 112 0 min 0,0 UV-I 7,0 C 9,0 C 0,0 km/h (0 Bft)
13.06.2014 05:00 9,0 C 26,9 C 10,8 C 9,1 C 9,1 C 0,1 C 87 % 85 % 0 % 1020,5 hPa 0,0 l/m 0,0 km/h (0 Bft) O-NO 67 0 min 0,0 UV-I 7,0 C 9,1 C 0,0 km/h (0 Bft)
13.06.2014 05:05 9,1 C 27,0 C 10,8 C 9,2 C 9,2 C 0,1 C 87 % 85 % 0 % 1020,5 hPa 0,0 l/m 0,0 km/h (0 Bft) O 90 0 min 0,0 UV-I 7,1 C 9,2 C 0,0 km/h (0 Bft)
13.06.2014 05:10 9,1 C 27,0 C 10,8 C 9,1 C 9,1 C 0,0 C 87 % 85 % 0 % 1020,5 hPa 0,0 l/m 0,0 km/h (0 Bft) O 90 0 min 0,0 UV-I 7,1 C 9,1 C 0,0 km/h (0 Bft)
13.06.2014 05:15 9,1 C 27,0 C 10,8 C 9,1 C 9,1 C 0,0 C 87 % 85 % 0 % 1020,5 hPa 0,0 l/m 0,0 km/h (0 Bft) O 90 0 min 0,0 UV-I 7,1 C 9,1 C 0,0 km/h (0 Bft)
13.06.2014 05:20 9,1 C 26,9 C 10,8 C 9,1 C 9,1 C 0,0 C 87 % 85 % 0 % 1020,8 hPa 0,0 l/m 0,0 km/h (0 Bft) O-NO 67 0 min 0,0 UV-I 7,1 C 9,1 C 0,0 km/h (0 Bft)
13.06.2014 05:25 9,1 C 27,0 C 10,7 C 9,1 C 9,1 C 0,0 C 87 % 85 % 0 % 1020,8 hPa 0,0 l/m 0,0 km/h (0 Bft) O 90 0 min 0,0 UV-I 7,1 C 9,1 C 0,0 km/h (0 Bft)
13.06.2014 05:30 9,0 C 27,0 C 10,7 C 9,1 C 9,1 C 0,1 C 87 % 85 % 3 % 1020,8 hPa 0,0 l/m 0,0 km/h (0 Bft) O 90 0 min 0,0 UV-I 7,0 C 9,1 C 0,0 km/h (0 Bft)
13.06.2014 05:35 8,9 C 26,9 C 10,7 C 9,1 C 9,1 C 0,2 C 87 % 85 % 5 % 1020,8 hPa 0,0 l/m 0,0 km/h (0 Bft) N-NO 22 0 min 0,0 UV-I 6,9 C 9,1 C 0,0 km/h (0 Bft)
13.06.2014 05:40 8,9 C 26,9 C 10,7 C 9,1 C 9,1 C 0,2 C 87 % 85 % 5 % 1021,3 hPa 0,0 l/m 0,0 km/h (0 Bft) O-SO 112 0 min 0,0 UV-I 6,9 C 9,1 C 0,0 km/h (0 Bft)
13.06.2014 05:45 8,9 C 26,9 C 10,8 C 9,2 C 9,2 C 0,3 C 88 % 85 % 8 % 1021,3 hPa 0,0 l/m 0,0 km/h (0 Bft) O-NO 67 0 min 0,0 UV-I 7,0 C 9,2 C 0,0 km/h (0 Bft)
13.06.2014 05:50 9,1 C 26,9 C 10,8 C 9,3 C 9,3 C 0,2 C 88 % 86 % 5 % 1021,3 hPa 0,0 l/m 0,0 km/h (0 Bft) O-NO 67 0 min 0,0 UV-I 7,2 C 9,3 C 0,0 km/h (0 Bft)
13.06.2014 05:55 9,1 C 26,9 C 10,8 C 9,4 C 9,4 C 0,3 C 88 % 85 % 8 % 1021,3 hPa 0,0 l/m 0,0 km/h (0 Bft) O-NO 67 0 min 0,0 UV-I 7,2 C 9,4 C 0,0 km/h (0 Bft)
13.06.2014 06:00 9,1 C 26,9 C 10,9 C 9,5 C 9,5 C 0,4 C 88 % 85 % 11 % 1021,1 hPa 0,0 l/m 0,0 km/h (0 Bft) O-NO 67 0 min 0,0 UV-I 7,2 C 9,5 C 0,0 km/h (0 Bft)
13.06.2014 06:05 9,0 C 26,8 C 11,1 C 9,8 C 9,8 C 0,8 C 88 % 85 % 21 % 1021,1 hPa 0,0 l/m 0,0 km/h (0 Bft) SO 135 0 min 0,0 UV-I 7,1 C 9,8 C 0,0 km/h (0 Bft)
13.06.2014 06:10 9,2 C 26,7 C 11,3 C 10,1 C 10,1 C 0,9 C 88 % 85 % 24 % 1021,1 hPa 0,0 l/m 0,0 km/h (0 Bft) O-NO 67 0 min 0,0 UV-I 7,3 C 10,1 C 0,0 km/h (0 Bft)
13.06.2014 06:15 9,2 C 26,6 C 11,3 C 10,4 C 10,4 C 1,2 C 89 % 85 % 32 % 1021,1 hPa 0,0 l/m 0,0 km/h (0 Bft) O-NO 67 0 min 0,0 UV-I 7,5 C 10,4 C 0,0 km/h (0 Bft)
13.06.2014 06:20 9,5 C 26,6 C 11,6 C 10,8 C 10,8 C 1,3 C 89 % 85 % 34 % 1020,6 hPa 0,0 l/m 0,0 km/h (0 Bft) S-SW 202 0 min 0,0 UV-I 7,8 C 10,8 C 0,0 km/h (0 Bft)
13.06.2014 06:25 9,5 C 26,6 C 11,6 C 11,0 C 11,0 C 1,5 C 89 % 85 % 39 % 1020,6 hPa 0,0 l/m 0,0 km/h (0 Bft) S-SW 202 0 min 0,0 UV-I 7,8 C 11,0 C 0,0 km/h (0 Bft)
13.06.2014 06:30 9,7 C 26,6 C 11,7 C 11,0 C 11,0 C 1,3 C 89 % 85 % 34 % 1020,6 hPa 0,0 l/m 0,0 km/h (0 Bft) SW 225 0 min 0,0 UV-I 8,0 C 11,0 C 0,0 km/h (0 Bft)
13.06.2014 06:35 9,7 C 26,6 C 11,7 C 11,0 C 11,0 C 1,3 C 89 % 85 % 34 % 1020,6 hPa 0,0 l/m 0,0 km/h (0 Bft) SO 135 0 min 0,0 UV-I 8,0 C 11,0 C 0,0 km/h (0 Bft)
13.06.2014 06:40 9,8 C 26,6 C 11,9 C 11,1 C 11,1 C 1,3 C 89 % 85 % 34 % 1020,5 hPa 0,0 l/m 0,0 km/h (0 Bft) S 180 0 min 0,0 UV-I 8,1 C 11,1 C 0,0 km/h (0 Bft)
13.06.2014 06:45 9,8 C 26,6 C 12,0 C 11,2 C 11,2 C 1,4 C 89 % 85 % 37 % 1020,5 hPa 0,0 l/m 0,0 km/h (0 Bft) N-NW 337 0 min 0,0 UV-I 8,1 C 11,2 C 0,0 km/h (0 Bft)
13.06.2014 06:50 9,9 C 26,6 C 12,2 C 11,5 C 11,5 C 1,6 C 89 % 85 % 42 % 1020,5 hPa 0,0 l/m 0,0 km/h (0 Bft) S 180 0 min 0,0 UV-I 8,2 C 11,5 C 0,0 km/h (0 Bft)
13.06.2014 06:55 10,1 C 26,6 C 12,5 C 11,7 C 11,7 C 1,6 C 89 % 85 % 42 % 1020,5 hPa 0,0 l/m 0,2 km/h (0 Bft) S 180 0 min 0,0 UV-I 8,4 C 11,7 C 0,0 km/h (0 Bft)
13.06.2014 07:00 10,2 C 26,6 C 12,8 C 14,3 C 14,3 C 4,1 C 89 % 85 % 100 % 1020,5 hPa 0,0 l/m 0,2 km/h (0 Bft) W 270 5 min 0,0 UV-I 8,5 C 14,3 C 0,0 km/h (0 Bft)
13.06.2014 07:05 10,3 C 26,6 C 13,1 C 16,6 C 16,6 C 6,3 C 89 % 84 % 100 % 1020,5 hPa 0,0 l/m 0,0 km/h (0 Bft) S-SO 157 5 min 0,0 UV-I 8,6 C 16,6 C 2,3 km/h (1 Bft)
13.06.2014 07:10 10,7 C 26,6 C 13,3 C 18,3 C 18,3 C 7,6 C 90 % 84 % 100 % 1020,5 hPa 0,0 l/m 0,2 km/h (0 Bft) SW 225 5 min 0,7 UV-I 9,1 C 18,3 C 1,9 km/h (1 Bft)
13.06.2014 07:15 11,2 C 26,6 C 13,5 C 19,3 C 19,3 C 8,1 C 90 % 83 % 100 % 1020,5 hPa 0,0 l/m 0,2 km/h (0 Bft) W 270 5 min 1,0 UV-I 9,6 C 19,3 C 0,0 km/h (0 Bft)
13.06.2014 07:20 11,6 C 26,6 C 13,9 C 20,7 C 20,7 C 9,1 C 90 % 83 % 100 % 1020,6 hPa 0,0 l/m 0,2 km/h (0 Bft) N-NO 22 5 min 1,6 UV-I 10,0 C 20,7 C 1,8 km/h (1 Bft)
13.06.2014 07:25 11,9 C 26,6 C 14,0 C 21,2 C 21,2 C 9,3 C 90 % 83 % 100 % 1020,6 hPa 0,0 l/m 0,2 km/h (0 Bft) S 180 5 min 2,0 UV-I 10,3 C 21,2 C 0,0 km/h (0 Bft)
13.06.2014 07:30 12,1 C 26,6 C 14,3 C 22,1 C 22,1 C 10,0 C 89 % 83 % 100 % 1020,6 hPa 0,0 l/m 0,2 km/h (0 Bft) S 180 5 min 0,0 UV-I 10,3 C 22,1 C 3,4 km/h (1 Bft)
13.06.2014 07:35 12,6 C 26,6 C 14,4 C 23,1 C 23,1 C 10,5 C 89 % 83 % 100 % 1020,6 hPa 0,0 l/m 0,2 km/h (0 Bft) S 180 5 min 0,0 UV-I 10,8 C 23,1 C 0,0 km/h (0 Bft)
13.06.2014 07:40 13,1 C 26,6 C 14,5 C 24,2 C 24,2 C 11,1 C 88 % 82 % 100 % 1020,6 hPa 0,0 l/m 0,0 km/h (0 Bft) SO 135 5 min 0,0 UV-I 11,2 C 24,2 C 0,0 km/h (0 Bft)
13.06.2014 07:45 13,5 C 26,6 C 14,6 C 24,5 C 24,5 C 11,0 C 87 % 82 % 100 % 1020,6 hPa 0,0 l/m 0,3 km/h (0 Bft) W 270 5 min 0,0 UV-I 11,4 C 24,5 C 0,0 km/h (0 Bft)
13.06.2014 07:50 13,9 C 26,6 C 14,7 C 24,9 C 24,9 C 11,0 C 86 % 82 % 100 % 1020,6 hPa 0,0 l/m 1,1 km/h (1 Bft) W 270 5 min 0,0 UV-I 11,6 C 24,9 C 4,0 km/h (1 Bft)
13.06.2014 07:55 14,2 C 26,6 C 14,7 C 24,9 C 24,9 C 10,7 C 86 % 82 % 100 % 1020,6 hPa 0,0 l/m 1,3 km/h (1 Bft) SW 225 5 min 0,0 UV-I 11,9 C 24,9 C 2,3 km/h (1 Bft)
13.06.2014 08:00 14,9 C 26,6 C 14,8 C 24,8 C 24,8 C 9,9 C 83 % 82 % 100 % 1020,5 hPa 0,0 l/m 1,4 km/h (1 Bft) W 270 5 min 0,0 UV-I 12,0 C 24,8 C 4,5 km/h (1 Bft)
13.06.2014 08:05 15,1 C 26,6 C 14,9 C 25,1 C 25,1 C 10,0 C 83 % 81 % 100 % 1020,5 hPa 0,0 l/m 1,3 km/h (1 Bft) N-NO 22 5 min 0,0 UV-I 12,2 C 25,1 C 2,9 km/h (1 Bft)
13.06.2014 08:10 15,5 C 26,6 C 15,1 C 25,0 C 25,0 C 9,5 C 81 % 81 % 100 % 1020,5 hPa 0,0 l/m 1,8 km/h (1 Bft) S 180 5 min 0,0 UV-I 12,3 C 25,0 C 4,8 km/h (1 Bft)
13.06.2014 08:15 15,5 C 26,6 C 15,0 C 25,2 C 25,2 C 9,7 C 81 % 81 % 100 % 1020,5 hPa 0,0 l/m 1,9 km/h (1 Bft) S 180 5 min 0,0 UV-I 12,3 C 25,2 C 3,4 km/h (1 Bft)
13.06.2014 08:20 15,8 C 26,6 C 15,2 C 25,1 C 25,1 C 9,3 C 79 % 81 % 100 % 1020,4 hPa 0,0 l/m 2,3 km/h (1 Bft) S 180 5 min 0,0 UV-I 12,2 C 25,1 C 5,8 km/h (2 Bft)
13.06.2014 08:25 15,9 C 26,6 C 15,3 C 24,7 C 24,7 C 8,8 C 79 % 81 % 100 % 1020,4 hPa 0,0 l/m 3,1 km/h (1 Bft) S 180 5 min 0,0 UV-I 12,3 C 24,7 C 6,3 km/h (2 Bft)
13.06.2014 08:30 15,8 C 26,6 C 15,7 C 24,6 C 24,6 C 8,8 C 79 % 81 % 100 % 1020,4 hPa 0,0 l/m 2,6 km/h (1 Bft) W-SW 247 5 min 0,0 UV-I 12,2 C 24,6 C 8,5 km/h (2 Bft)
13.06.2014 08:35 16,0 C 26,6 C 15,7 C 24,9 C 24,9 C 8,9 C 79 % 81 % 100 % 1020,4 hPa 0,0 l/m 2,4 km/h (1 Bft) S-SW 202 5 min 0,0 UV-I 12,4 C 24,9 C 3,4 km/h (1 Bft)
13.06.2014 08:40 16,4 C 26,6 C 15,9 C 25,8 C 25,8 C 9,4 C 79 % 80 % 100 % 1020,2 hPa 0,0 l/m 1,6 km/h (1 Bft) W-SW 247 5 min 0,0 UV-I 12,7 C 25,8 C 3,4 km/h (1 Bft)
13.06.2014 08:45 16,7 C 26,6 C 15,9 C 26,0 C 26,0 C 9,3 C 78 % 80 % 100 % 1020,2 hPa 0,0 l/m 1,3 km/h (1 Bft) SW 225 5 min 0,0 UV-I 12,8 C 26,0 C 2,9 km/h (1 Bft)
13.06.2014 08:50 16,9 C 26,6 C 15,6 C 26,4 C 26,4 C 9,5 C 77 % 80 % 100 % 1020,2 hPa 0,0 l/m 1,8 km/h (1 Bft) SW 225 5 min 0,0 UV-I 12,8 C 26,4 C 4,2 km/h (1 Bft)
13.06.2014 08:55 16,9 C 26,6 C 15,6 C 25,4 C 25,4 C 8,5 C 76 % 80 % 100 % 1020,2 hPa 0,0 l/m 2,3 km/h (1 Bft) S-SW 202 5 min 0,0 UV-I 12,6 C 25,4 C 3,5 km/h (1 Bft)
13.06.2014 09:00 16,8 C 26,6 C 15,7 C 25,8 C 25,8 C 9,0 C 75 % 80 % 100 % 1020,2 hPa 0,0 l/m 2,3 km/h (1 Bft) W 270 5 min 0,0 UV-I 12,3 C 25,8 C 5,0 km/h (1 Bft)
13.06.2014 09:05 17,0 C 26,6 C 15,8 C 26,0 C 26,0 C 9,0 C 76 % 80 % 100 % 1020,2 hPa 0,0 l/m 1,9 km/h (1 Bft) W-SW 247 5 min 0,0 UV-I 12,7 C 26,0 C 3,2 km/h (1 Bft)
13.06.2014 09:10 16,9 C 26,6 C 15,7 C 24,6 C 24,6 C 7,7 C 75 % 79 % 100 % 1020,2 hPa 0,0 l/m 2,9 km/h (1 Bft) W-NW 292 5 min 0,0 UV-I 12,4 C 24,6 C 1,8 km/h (1 Bft)
13.06.2014 09:15 16,8 C 26,6 C 15,8 C 24,7 C 24,7 C 7,9 C 75 % 79 % 100 % 1020,2 hPa 0,0 l/m 3,2 km/h (1 Bft) S 180 5 min 0,0 UV-I 12,3 C 24,7 C 8,5 km/h (2 Bft)
13.06.2014 09:20 16,9 C 26,6 C 15,9 C 24,8 C 24,8 C 7,9 C 73 % 79 % 100 % 1019,9 hPa 0,0 l/m 3,7 km/h (1 Bft) S 180 5 min 0,0 UV-I 12,0 C 24,8 C 14,2 km/h (3 Bft)
13.06.2014 09:25 17,1 C 26,6 C 15,9 C 25,0 C 25,0 C 7,9 C 73 % 79 % 100 % 1019,9 hPa 0,0 l/m 3,5 km/h (1 Bft) SW 225 5 min 0,0 UV-I 12,2 C 25,0 C 2,1 km/h (1 Bft)
13.06.2014 09:30 17,3 C 26,6 C 16,0 C 25,4 C 25,4 C 8,1 C 73 % 78 % 100 % 1019,9 hPa 0,0 l/m 2,4 km/h (1 Bft) SW 225 5 min 0,0 UV-I 12,4 C 25,4 C 2,6 km/h (1 Bft)
13.06.2014 09:35 17,3 C 26,2 C 16,0 C 25,6 C 25,6 C 8,3 C 72 % 78 % 100 % 1019,9 hPa 0,0 l/m 3,1 km/h (1 Bft) S 180 5 min 0,0 UV-I 12,2 C 25,6 C 3,2 km/h (1 Bft)
13.06.2014 09:40 17,2 C 26,1 C 16,1 C 25,5 C 25,5 C 8,3 C 70 % 77 % 100 % 1019,9 hPa 0,0 l/m 3,4 km/h (1 Bft) W 270 5 min 0,0 UV-I 11,7 C 25,5 C 2,3 km/h (1 Bft)
13.06.2014 09:45 17,3 C 26,2 C 16,3 C 26,1 C 26,1 C 8,8 C 70 % 77 % 100 % 1019,9 hPa 0,0 l/m 2,9 km/h (1 Bft) S 180 5 min 0,0 UV-I 11,8 C 26,1 C 2,3 km/h (1 Bft)
13.06.2014 09:50 17,5 C 26,2 C 16,3 C 25,8 C 25,8 C 8,3 C 69 % 77 % 100 % 1019,9 hPa 0,0 l/m 2,7 km/h (1 Bft) W 270 5 min 0,0 UV-I 11,7 C 25,8 C 4,7 km/h (1 Bft)
13.06.2014 09:55 17,5 C 26,2 C 16,3 C 25,6 C 25,6 C 8,1 C 69 % 76 % 100 % 1019,9 hPa 0,0 l/m 3,5 km/h (1 Bft) SW 225 5 min 0,0 UV-I 11,7 C 25,6 C 0,0 km/h (0 Bft)
13.06.2014 10:00 17,5 C 26,2 C 16,4 C 26,5 C 26,5 C 9,0 C 68 % 76 % 100 % 1020,0 hPa 0,0 l/m 2,4 km/h (1 Bft) W-NW 292 5 min 0,0 UV-I 11,5 C 26,5 C 2,6 km/h (1 Bft)
13.06.2014 10:05 17,6 C 26,2 C 16,4 C 26,3 C 26,3 C 8,7 C 66 % 75 % 100 % 1020,0 hPa 0,0 l/m 2,9 km/h (1 Bft) S-SW 202 5 min 0,0 UV-I 11,2 C 26,3 C 6,0 km/h (2 Bft)
13.06.2014 10:10 17,4 C 26,2 C 16,5 C 24,8 C 24,8 C 7,4 C 66 % 74 % 100 % 1020,0 hPa 0,0 l/m 5,3 km/h (1 Bft) SW 225 5 min 0,0 UV-I 11,0 C 24,8 C 5,5 km/h (1 Bft)
13.06.2014 10:15 17,5 C 26,2 C 16,7 C 25,0 C 25,0 C 7,5 C 66 % 74 % 100 % 1020,0 hPa 0,0 l/m 5,0 km/h (1 Bft) S-SO 157 5 min 0,0 UV-I 11,1 C 25,0 C 4,2 km/h (1 Bft)
13.06.2014 10:20 17,7 C 26,2 C 16,7 C 25,1 C 25,1 C 7,4 C 66 % 73 % 100 % 1019,6 hPa 0,0 l/m 3,7 km/h (1 Bft) SW 225 5 min 0,0 UV-I 11,3 C 25,1 C 4,2 km/h (1 Bft)
13.06.2014 10:25 17,7 C 26,2 C 16,9 C 25,6 C 25,6 C 7,9 C 65 % 73 % 100 % 1019,6 hPa 0,0 l/m 3,4 km/h (1 Bft) S 180 5 min 0,0 UV-I 11,0 C 25,6 C 4,3 km/h (1 Bft)
13.06.2014 10:30 17,9 C 26,2 C 17,1 C 25,9 C 25,9 C 8,0 C 64 % 71 % 100 % 1019,6 hPa 0,0 l/m 3,2 km/h (1 Bft) W 270 5 min 0,0 UV-I 11,0 C 25,9 C 1,6 km/h (1 Bft)
13.06.2014 10:35 18,1 C 26,2 C 17,2 C 26,4 C 26,4 C 8,3 C 64 % 71 % 100 % 1019,6 hPa 0,0 l/m 3,4 km/h (1 Bft) SW 225 5 min 0,0 UV-I 11,2 C 26,4 C 10,0 km/h (2 Bft)
13.06.2014 10:40 18,2 C 26,2 C 17,3 C 25,7 C 25,7 C 7,5 C 63 % 70 % 100 % 1019,4 hPa 0,0 l/m 4,2 km/h (1 Bft) S 180 5 min 0,0 UV-I 11,0 C 25,7 C 9,7 km/h (2 Bft)
13.06.2014 10:45 18,1 C 26,2 C 17,3 C 23,8 C 23,8 C 5,7 C 63 % 70 % 100 % 1019,4 hPa 0,0 l/m 4,2 km/h (1 Bft) SO 135 5 min 0,0 UV-I 10,9 C 23,8 C 1,6 km/h (1 Bft)
13.06.2014 10:50 18,3 C 26,2 C 17,5 C 24,9 C 24,9 C 6,6 C 63 % 69 % 100 % 1019,4 hPa 0,0 l/m 3,2 km/h (1 Bft) NO 45 5 min 0,0 UV-I 11,1 C 24,9 C 4,0 km/h (1 Bft)
13.06.2014 10:55 18,6 C 26,2 C 17,6 C 26,1 C 26,1 C 7,5 C 62 % 70 % 100 % 1019,4 hPa 0,0 l/m 2,4 km/h (1 Bft) S 180 5 min 0,0 UV-I 11,2 C 26,1 C 5,5 km/h (1 Bft)
13.06.2014 11:00 18,7 C 26,2 C 17,6 C 24,2 C 24,2 C 5,5 C 61 % 69 % 100 % 1019,5 hPa 0,0 l/m 4,0 km/h (1 Bft) N-NO 22 5 min 0,0 UV-I 11,0 C 24,2 C 4,5 km/h (1 Bft)
13.06.2014 11:05 18,6 C 26,2 C 17,8 C 24,1 C 24,1 C 5,5 C 61 % 69 % 100 % 1019,5 hPa 0,0 l/m 4,7 km/h (1 Bft) NO 45 5 min 0,0 UV-I 10,9 C 24,1 C 4,5 km/h (1 Bft)
13.06.2014 11:10 19,1 C 26,2 C 17,9 C 25,5 C 25,5 C 6,4 C 62 % 69 % 100 % 1019,5 hPa 0,0 l/m 3,4 km/h (1 Bft) W-SW 247 5 min 0,0 UV-I 11,6 C 25,5 C 6,1 km/h (2 Bft)
13.06.2014 11:15 19,1 C 26,1 C 18,1 C 25,4 C 25,4 C 6,3 C 60 % 68 % 100 % 1019,5 hPa 0,0 l/m 4,2 km/h (1 Bft) NW 315 5 min 0,0 UV-I 11,1 C 25,4 C 5,5 km/h (1 Bft)
13.06.2014 11:20 18,9 C 26,1 C 18,1 C 25,7 C 25,7 C 6,8 C 61 % 69 % 100 % 1019,2 hPa 0,0 l/m 4,3 km/h (1 Bft) W 270 5 min 0,0 UV-I 11,2 C 25,7 C 5,1 km/h (1 Bft)
13.06.2014 11:25 18,9 C 26,2 C 18,3 C 26,1 C 26,1 C 7,2 C 61 % 68 % 100 % 1019,2 hPa 0,0 l/m 3,9 km/h (1 Bft) S 180 5 min 0,0 UV-I 11,2 C 26,1 C 2,7 km/h (1 Bft)
13.06.2014 11:30 19,1 C 26,2 C 18,5 C 25,4 C 25,4 C 6,3 C 60 % 68 % 100 % 1019,2 hPa 0,0 l/m 3,9 km/h (1 Bft) S-SW 202 5 min 0,0 UV-I 11,1 C 25,4 C 4,5 km/h (1 Bft)
13.06.2014 11:35 19,0 C 26,2 C 18,6 C 25,7 C 25,7 C 6,7 C 60 % 67 % 100 % 1019,2 hPa 0,0 l/m 3,7 km/h (1 Bft) S-SW 202 5 min 0,0 UV-I 11,1 C 25,7 C 3,4 km/h (1 Bft)
13.06.2014 11:40 19,3 C 26,2 C 18,9 C 25,9 C 25,9 C 6,6 C 60 % 67 % 100 % 1019,1 hPa 0,0 l/m 3,5 km/h (1 Bft) W 270 5 min 0,0 UV-I 11,3 C 25,9 C 6,3 km/h (2 Bft)
13.06.2014 11:45 19,3 C 26,2 C 19,0 C 24,9 C 24,9 C 5,6 C 58 % 66 % 100 % 1019,1 hPa 0,0 l/m 3,9 km/h (1 Bft) N 360 5 min 0,0 UV-I 10,8 C 24,9 C 9,0 km/h (2 Bft)
13.06.2014 11:50 19,2 C 26,2 C 19,1 C 24,0 C 24,0 C 4,8 C 59 % 65 % 100 % 1019,1 hPa 0,0 l/m 4,2 km/h (1 Bft) W 270 5 min 0,0 UV-I 11,0 C 24,0 C 5,6 km/h (1 Bft)
13.06.2014 11:55 19,2 C 26,2 C 19,1 C 23,5 C 23,5 C 4,3 C 59 % 65 % 100 % 1019,1 hPa 0,0 l/m 4,3 km/h (1 Bft) W 270 5 min 0,0 UV-I 11,0 C 23,5 C 5,6 km/h (1 Bft)
13.06.2014 12:00 19,3 C 26,2 C 19,5 C 23,9 C 23,9 C 4,6 C 60 % 65 % 100 % 1018,9 hPa 0,0 l/m 4,8 km/h (1 Bft) S-SW 202 5 min 0,0 UV-I 11,3 C 23,9 C 5,0 km/h (1 Bft)
13.06.2014 12:05 19,5 C 26,2 C 19,7 C 24,2 C 24,2 C 4,7 C 59 % 66 % 100 % 1018,9 hPa 0,0 l/m 4,7 km/h (1 Bft) SW 225 5 min 0,0 UV-I 11,3 C 24,2 C 6,3 km/h (2 Bft)
13.06.2014 12:10 19,7 C 26,2 C 19,7 C 24,5 C 24,5 C 4,8 C 59 % 65 % 100 % 1018,9 hPa 0,0 l/m 4,8 km/h (1 Bft) W 270 5 min 0,0 UV-I 11,5 C 24,5 C 8,7 km/h (2 Bft)
13.06.2014 12:15 19,8 C 26,2 C 19,8 C 24,9 C 24,9 C 5,1 C 58 % 64 % 100 % 1018,9 hPa 0,0 l/m 4,2 km/h (1 Bft) N-NW 337 5 min 0,0 UV-I 11,3 C 24,9 C 5,8 km/h (2 Bft)
13.06.2014 12:20 19,9 C 26,2 C 20,0 C 25,2 C 25,2 C 5,3 C 58 % 64 % 100 % 1018,7 hPa 0,0 l/m 3,9 km/h (1 Bft) W-SW 247 5 min 0,0 UV-I 11,4 C 25,2 C 2,3 km/h (1 Bft)
13.06.2014 12:25 19,9 C 26,2 C 20,1 C 25,2 C 25,2 C 5,3 C 57 % 63 % 100 % 1018,7 hPa 0,0 l/m 5,1 km/h (1 Bft) SW 225 5 min 0,0 UV-I 11,1 C 25,2 C 8,2 km/h (2 Bft)
13.06.2014 12:30 19,6 C 26,2 C 19,9 C 24,2 C 24,2 C 4,6 C 58 % 63 % 100 % 1018,7 hPa 0,0 l/m 6,3 km/h (2 Bft) S-SW 202 5 min 0,0 UV-I 11,1 C 24,2 C 15,1 km/h (3 Bft)
13.06.2014 12:35 19,7 C 26,2 C 19,9 C 24,0 C 24,0 C 4,3 C 57 % 63 % 100 % 1018,7 hPa 0,0 l/m 6,1 km/h (2 Bft) S-SW 202 5 min 0,0 UV-I 10,9 C 24,0 C 5,6 km/h (1 Bft)
13.06.2014 12:40 19,7 C 26,2 C 19,8 C 23,4 C 23,4 C 3,7 C 58 % 62 % 97 % 1018,4 hPa 0,0 l/m 5,1 km/h (1 Bft) W-NW 292 5 min 0,0 UV-I 11,2 C 23,4 C 5,5 km/h (1 Bft)
13.06.2014 12:45 19,7 C 26,2 C 19,9 C 23,7 C 23,7 C 4,0 C 58 % 64 % 100 % 1018,4 hPa 0,0 l/m 4,2 km/h (1 Bft) SO 135 5 min 0,0 UV-I 11,2 C 23,7 C 6,1 km/h (2 Bft)
13.06.2014 12:50 20,0 C 26,3 C 20,3 C 24,7 C 24,7 C 4,7 C 57 % 63 % 100 % 1018,4 hPa 0,0 l/m 4,3 km/h (1 Bft) S 180 5 min 0,0 UV-I 11,2 C 24,7 C 2,9 km/h (1 Bft)
13.06.2014 12:55 20,3 C 26,3 C 20,4 C 25,3 C 25,3 C 5,0 C 57 % 62 % 100 % 1018,4 hPa 0,0 l/m 5,1 km/h (1 Bft) SW 225 5 min 0,0 UV-I 11,5 C 25,3 C 9,3 km/h (2 Bft)
13.06.2014 13:00 20,6 C 26,3 C 20,5 C 25,7 C 25,7 C 5,1 C 56 % 61 % 100 % 1018,1 hPa 0,0 l/m 4,2 km/h (1 Bft) W-SW 247 5 min 0,0 UV-I 11,5 C 25,7 C 2,7 km/h (1 Bft)
13.06.2014 13:05 20,6 C 26,3 C 20,5 C 25,5 C 25,5 C 4,9 C 56 % 61 % 100 % 1018,1 hPa 0,0 l/m 3,7 km/h (1 Bft) SW 225 5 min 0,0 UV-I 11,5 C 25,5 C 4,2 km/h (1 Bft)
13.06.2014 13:10 20,7 C 26,3 C 20,4 C 25,3 C 25,3 C 4,6 C 56 % 61 % 100 % 1018,1 hPa 0,0 l/m 3,1 km/h (1 Bft) SW 225 5 min 0,0 UV-I 11,6 C 25,3 C 10,9 km/h (2 Bft)
13.06.2014 13:15 20,5 C 26,3 C 20,1 C 24,2 C 24,2 C 3,7 C 55 % 60 % 97 % 1018,1 hPa 0,0 l/m 4,5 km/h (1 Bft) W-SW 247 5 min 0,0 UV-I 11,1 C 24,2 C 4,8 km/h (1 Bft)
13.06.2014 13:20 20,0 C 26,3 C 19,9 C 22,7 C 22,7 C 2,7 C 56 % 61 % 71 % 1018,1 hPa 0,0 l/m 5,6 km/h (1 Bft) W 270 0 min 0,0 UV-I 11,0 C 22,7 C 4,5 km/h (1 Bft)
13.06.2014 13:25 20,0 C 26,3 C 20,0 C 22,9 C 22,9 C 2,9 C 56 % 62 % 76 % 1018,1 hPa 0,0 l/m 4,7 km/h (1 Bft) W 270 0 min 0,0 UV-I 11,0 C 22,9 C 6,1 km/h (2 Bft)
13.06.2014 13:30 20,1 C 26,3 C 20,0 C 22,9 C 22,9 C 2,8 C 57 % 62 % 74 % 1018,1 hPa 0,0 l/m 3,9 km/h (1 Bft) N 360 0 min 0,0 UV-I 11,3 C 22,9 C 2,7 km/h (1 Bft)
13.06.2014 13:35 20,2 C 26,3 C 19,9 C 22,9 C 22,9 C 2,7 C 56 % 61 % 71 % 1018,1 hPa 0,0 l/m 3,5 km/h (1 Bft) S 180 0 min 0,0 UV-I 11,1 C 22,9 C 5,3 km/h (1 Bft)
13.06.2014 13:40 20,1 C 26,3 C 20,0 C 22,8 C 22,8 C 2,7 C 57 % 62 % 71 % 1017,8 hPa 0,0 l/m 4,5 km/h (1 Bft) W-NW 292 0 min 0,0 UV-I 11,3 C 22,8 C 4,2 km/h (1 Bft)
13.06.2014 13:45 20,2 C 26,3 C 20,4 C 23,5 C 23,5 C 3,3 C 59 % 63 % 87 % 1017,8 hPa 0,0 l/m 4,0 km/h (1 Bft) SW 225 5 min 0,0 UV-I 11,9 C 23,5 C 3,2 km/h (1 Bft)
13.06.2014 13:50 20,8 C 26,4 C 21,1 C 25,3 C 25,3 C 4,5 C 57 % 62 % 100 % 1017,8 hPa 0,0 l/m 3,5 km/h (1 Bft) SW 225 5 min 0,0 UV-I 12,0 C 25,3 C 4,3 km/h (1 Bft)
13.06.2014 13:55 20,8 C 26,4 C 20,9 C 25,3 C 25,3 C 4,5 C 56 % 60 % 100 % 1017,8 hPa 0,0 l/m 4,8 km/h (1 Bft) W-SW 247 5 min 0,0 UV-I 11,7 C 25,3 C 8,2 km/h (2 Bft)
13.06.2014 14:00 20,4 C 26,4 C 20,4 C 23,7 C 23,7 C 3,3 C 57 % 61 % 87 % 1017,4 hPa 0,0 l/m 5,0 km/h (1 Bft) SW 225 5 min 0,0 UV-I 11,6 C 23,7 C 3,5 km/h (1 Bft)
13.06.2014 14:05 20,3 C 26,4 C 20,3 C 23,2 C 23,2 C 2,9 C 57 % 61 % 76 % 1017,4 hPa 0,0 l/m 4,7 km/h (1 Bft) W-SW 247 0 min 0,0 UV-I 11,5 C 23,2 C 3,5 km/h (1 Bft)
13.06.2014 14:10 20,0 C 26,4 C 20,3 C 23,0 C 23,0 C 3,0 C 57 % 60 % 79 % 1017,4 hPa 0,0 l/m 3,9 km/h (1 Bft) N-NO 22 0 min 0,0 UV-I 11,2 C 23,0 C 3,1 km/h (1 Bft)
13.06.2014 14:15 20,3 C 26,4 C 20,4 C 23,3 C 23,3 C 3,0 C 57 % 60 % 79 % 1017,4 hPa 0,0 l/m 3,4 km/h (1 Bft) W-SW 247 0 min 0,0 UV-I 11,5 C 23,3 C 4,5 km/h (1 Bft)
13.06.2014 14:20 20,4 C 26,4 C 20,3 C 23,6 C 23,6 C 3,2 C 58 % 61 % 84 % 1017,3 hPa 0,0 l/m 2,3 km/h (1 Bft) SW 225 0 min 0,0 UV-I 11,9 C 23,6 C 5,8 km/h (2 Bft)
13.06.2014 14:25 20,2 C 26,4 C 20,0 C 23,1 C 23,1 C 2,9 C 55 % 60 % 76 % 1017,3 hPa 0,0 l/m 2,7 km/h (1 Bft) W-SW 247 0 min 0,0 UV-I 10,9 C 23,1 C 3,9 km/h (1 Bft)
13.06.2014 14:30 19,9 C 26,4 C 19,9 C 22,0 C 22,0 C 2,1 C 56 % 60 % 55 % 1017,3 hPa 0,0 l/m 3,9 km/h (1 Bft) NO 45 0 min 0,0 UV-I 10,9 C 22,0 C 4,7 km/h (1 Bft)
13.06.2014 14:35 19,7 C 26,4 C 19,7 C 21,5 C 21,5 C 1,8 C 56 % 61 % 47 % 1017,3 hPa 0,0 l/m 3,4 km/h (1 Bft) S-SW 202 0 min 0,0 UV-I 10,7 C 21,5 C 2,6 km/h (1 Bft)
13.06.2014 14:40 19,5 C 26,4 C 19,5 C 21,0 C 21,0 C 1,5 C 57 % 62 % 39 % 1017,1 hPa 0,0 l/m 2,7 km/h (1 Bft) S 180 0 min 0,0 UV-I 10,8 C 21,0 C 3,4 km/h (1 Bft)
13.06.2014 14:45 19,4 C 26,4 C 19,3 C 20,6 C 20,6 C 1,2 C 57 % 62 % 32 % 1017,1 hPa 0,0 l/m 2,9 km/h (1 Bft) W-SW 247 0 min 0,0 UV-I 10,7 C 20,6 C 6,8 km/h (2 Bft)
13.06.2014 14:50 19,3 C 26,4 C 19,2 C 20,4 C 20,4 C 1,1 C 57 % 62 % 29 % 1017,1 hPa 0,0 l/m 3,4 km/h (1 Bft) S 180 0 min 0,0 UV-I 10,6 C 20,4 C 2,7 km/h (1 Bft)
13.06.2014 14:55 19,3 C 26,4 C 19,1 C 20,3 C 20,3 C 1,0 C 58 % 62 % 26 % 1017,1 hPa 0,0 l/m 3,1 km/h (1 Bft) S 180 0 min 0,0 UV-I 10,8 C 20,3 C 4,3 km/h (1 Bft)
13.06.2014 15:00 19,3 C 26,4 C 19,1 C 20,3 C 20,3 C 1,0 C 57 % 61 % 26 % 1016,7 hPa 0,0 l/m 2,1 km/h (1 Bft) S 180 0 min 0,0 UV-I 10,6 C 20,3 C 1,8 km/h (1 Bft)
13.06.2014 15:05 19,2 C 26,4 C 18,9 C 20,1 C 20,1 C 0,9 C 58 % 61 % 24 % 1016,7 hPa 0,0 l/m 1,8 km/h (1 Bft) S 180 0 min 0,0 UV-I 10,7 C 20,1 C 4,2 km/h (1 Bft)
13.06.2014 15:10 19,1 C 26,4 C 18,8 C 19,9 C 19,9 C 0,8 C 59 % 63 % 21 % 1016,7 hPa 0,0 l/m 1,4 km/h (1 Bft) W-SW 247 0 min 0,0 UV-I 10,9 C 19,9 C 3,4 km/h (1 Bft)
13.06.2014 15:15 19,1 C 26,4 C 18,9 C 19,9 C 19,9 C 0,8 C 59 % 62 % 21 % 1016,7 hPa 0,0 l/m 2,1 km/h (1 Bft) W-NW 292 0 min 0,0 UV-I 10,9 C 19,9 C 1,8 km/h (1 Bft)
13.06.2014 15:20 19,0 C 26,4 C 18,6 C 19,7 C 19,7 C 0,7 C 59 % 63 % 18 % 1016,9 hPa 0,0 l/m 2,6 km/h (1 Bft) S-SO 157 0 min 0,0 UV-I 10,8 C 19,7 C 4,2 km/h (1 Bft)
13.06.2014 15:25 18,8 C 26,4 C 18,6 C 19,5 C 19,5 C 0,7 C 59 % 63 % 18 % 1016,9 hPa 0,0 l/m 3,1 km/h (1 Bft) NW 315 0 min 0,0 UV-I 10,6 C 19,5 C 4,7 km/h (1 Bft)
13.06.2014 15:30 18,8 C 26,6 C 18,4 C 19,4 C 19,4 C 0,6 C 60 % 63 % 16 % 1016,9 hPa 0,0 l/m 2,9 km/h (1 Bft) N 360 0 min 0,0 UV-I 10,9 C 19,4 C 3,2 km/h (1 Bft)
13.06.2014 15:35 18,8 C 26,6 C 18,5 C 19,6 C 19,6 C 0,8 C 60 % 63 % 21 % 1016,9 hPa 0,0 l/m 1,8 km/h (1 Bft) W 270 0 min 0,0 UV-I 10,9 C 19,6 C 4,0 km/h (1 Bft)
13.06.2014 15:40 18,9 C 26,5 C 18,5 C 20,1 C 20,1 C 1,2 C 61 % 64 % 32 % 1017,1 hPa 0,0 l/m 1,1 km/h (1 Bft) W 270 0 min 0,0 UV-I 11,2 C 20,1 C 2,9 km/h (1 Bft)
13.06.2014 15:45 18,9 C 26,6 C 18,5 C 20,1 C 20,1 C 1,2 C 61 % 65 % 32 % 1017,1 hPa 0,0 l/m 1,3 km/h (1 Bft) S 180 0 min 0,0 UV-I 11,2 C 20,1 C 2,1 km/h (1 Bft)
13.06.2014 15:50 18,8 C 26,6 C 18,4 C 20,0 C 20,0 C 1,2 C 61 % 65 % 32 % 1017,1 hPa 0,0 l/m 1,0 km/h (0 Bft) N 360 0 min 0,0 UV-I 11,1 C 20,0 C 0,0 km/h (0 Bft)
13.06.2014 15:55 18,8 C 26,6 C 18,3 C 19,8 C 19,8 C 1,0 C 61 % 66 % 26 % 1017,1 hPa 0,0 l/m 0,6 km/h (0 Bft) W-SW 247 0 min 0,0 UV-I 11,1 C 19,8 C 0,0 km/h (0 Bft)
13.06.2014 16:00 18,7 C 26,6 C 18,2 C 19,6 C 19,6 C 0,9 C 61 % 66 % 24 % 1017,0 hPa 0,0 l/m 1,1 km/h (1 Bft) O-NO 67 0 min 0,0 UV-I 11,0 C 19,6 C 4,0 km/h (1 Bft)
13.06.2014 16:05 18,6 C 26,6 C 18,2 C 19,4 C 19,4 C 0,8 C 62 % 66 % 21 % 1017,0 hPa 0,0 l/m 1,3 km/h (1 Bft) N-NO 22 0 min 0,0 UV-I 11,2 C 19,4 C 0,0 km/h (0 Bft)
13.06.2014 16:10 18,4 C 26,6 C 18,0 C 19,0 C 19,0 C 0,6 C 63 % 66 % 16 % 1017,0 hPa 0,0 l/m 1,1 km/h (1 Bft) W 270 0 min 0,0 UV-I 11,2 C 19,0 C 1,6 km/h (1 Bft)
13.06.2014 16:15 18,4 C 26,6 C 18,0 C 18,8 C 18,8 C 0,4 C 63 % 67 % 11 % 1017,0 hPa 0,0 l/m 1,0 km/h (0 Bft) S 180 0 min 0,0 UV-I 11,2 C 18,8 C 0,0 km/h (0 Bft)
13.06.2014 16:20 18,2 C 26,6 C 17,9 C 18,6 C 18,6 C 0,4 C 64 % 67 % 11 % 1017,4 hPa 0,0 l/m 1,6 km/h (1 Bft) N-NO 22 0 min 0,0 UV-I 11,3 C 18,6 C 0,0 km/h (0 Bft)
13.06.2014 16:25 18,2 C 26,6 C 17,9 C 18,5 C 18,5 C 0,3 C 64 % 68 % 8 % 1017,4 hPa 0,0 l/m 2,3 km/h (1 Bft) N-NW 337 0 min 0,0 UV-I 11,3 C 18,5 C 1,8 km/h (1 Bft)
13.06.2014 16:30 18,0 C 26,6 C 17,7 C 18,3 C 18,3 C 0,3 C 65 % 68 % 8 % 1017,4 hPa 0,0 l/m 2,3 km/h (1 Bft) NW 315 0 min 0,0 UV-I 11,3 C 18,3 C 3,7 km/h (1 Bft)
13.06.2014 16:35 17,9 C 26,6 C 17,6 C 18,2 C 18,2 C 0,3 C 65 % 68 % 8 % 1017,4 hPa 0,0 l/m 2,3 km/h (1 Bft) N-NW 337 0 min 0,0 UV-I 11,2 C 18,2 C 3,9 km/h (1 Bft)
13.06.2014 16:40 17,9 C 26,6 C 17,5 C 18,1 C 18,1 C 0,2 C 66 % 69 % 5 % 1017,5 hPa 0,0 l/m 1,6 km/h (1 Bft) SW 225 0 min 0,0 UV-I 11,5 C 18,1 C 0,0 km/h (0 Bft)
13.06.2014 16:45 17,9 C 26,6 C 17,6 C 18,1 C 18,1 C 0,2 C 66 % 70 % 5 % 1017,5 hPa 0,0 l/m 1,6 km/h (1 Bft) W-NW 292 0 min 0,0 UV-I 11,5 C 18,1 C 3,9 km/h (1 Bft)
13.06.2014 16:50 17,7 C 26,6 C 17,6 C 18,2 C 18,2 C 0,5 C 65 % 69 % 13 % 1017,5 hPa 0,0 l/m 2,1 km/h (1 Bft) NW 315 0 min 0,0 UV-I 11,0 C 18,2 C 3,4 km/h (1 Bft)
13.06.2014 16:55 17,7 C 26,6 C 17,7 C 18,3 C 18,3 C 0,6 C 65 % 69 % 16 % 1017,5 hPa 0,0 l/m 2,4 km/h (1 Bft) SO 135 0 min 0,0 UV-I 11,0 C 18,3 C 0,0 km/h (0 Bft)
13.06.2014 17:00 17,7 C 26,6 C 17,7 C 18,5 C 18,5 C 0,8 C 65 % 70 % 21 % 1017,2 hPa 0,0 l/m 1,8 km/h (1 Bft) N-NW 337 0 min 0,0 UV-I 11,0 C 18,5 C 0,0 km/h (0 Bft)
13.06.2014 17:05 17,7 C 26,6 C 17,7 C 18,5 C 18,5 C 0,8 C 65 % 70 % 21 % 1017,2 hPa 0,0 l/m 1,3 km/h (1 Bft) S-SW 202 0 min 0,0 UV-I 11,0 C 18,5 C 4,0 km/h (1 Bft)
13.06.2014 17:10 17,6 C 26,6 C 17,5 C 18,4 C 18,4 C 0,8 C 65 % 70 % 21 % 1017,2 hPa 0,0 l/m 1,9 km/h (1 Bft) S 180 0 min 0,0 UV-I 10,9 C 18,4 C 2,9 km/h (1 Bft)
13.06.2014 17:15 17,7 C 26,6 C 17,6 C 18,4 C 18,4 C 0,7 C 66 % 70 % 18 % 1017,2 hPa 0,0 l/m 2,9 km/h (1 Bft) NO 45 0 min 0,0 UV-I 11,3 C 18,4 C 4,5 km/h (1 Bft)
13.06.2014 17:20 17,6 C 26,6 C 17,7 C 18,6 C 18,6 C 1,0 C 66 % 70 % 26 % 1017,2 hPa 0,0 l/m 2,1 km/h (1 Bft) NO 45 0 min 0,0 UV-I 11,2 C 18,6 C 0,0 km/h (0 Bft)
13.06.2014 17:25 17,6 C 26,6 C 17,9 C 19,2 C 19,2 C 1,6 C 67 % 70 % 42 % 1017,2 hPa 0,0 l/m 1,6 km/h (1 Bft) W 270 0 min 0,0 UV-I 11,4 C 19,2 C 0,0 km/h (0 Bft)
13.06.2014 17:30 18,0 C 26,6 C 18,1 C 20,3 C 20,3 C 2,3 C 66 % 70 % 61 % 1017,2 hPa 0,0 l/m 1,3 km/h (1 Bft) S-SW 202 0 min 0,0 UV-I 11,6 C 20,3 C 2,4 km/h (1 Bft)
13.06.2014 17:35 18,1 C 26,6 C 18,1 C 20,5 C 20,5 C 2,4 C 66 % 70 % 63 % 1017,2 hPa 0,0 l/m 1,4 km/h (1 Bft) W-SW 247 0 min 0,0 UV-I 11,6 C 20,5 C 2,3 km/h (1 Bft)
13.06.2014 17:40 18,3 C 26,6 C 18,0 C 20,4 C 20,4 C 2,1 C 67 % 70 % 55 % 1017,1 hPa 0,0 l/m 1,3 km/h (1 Bft) SW 225 0 min 0,0 UV-I 12,1 C 20,4 C 1,8 km/h (1 Bft)
13.06.2014 17:45 18,2 C 26,6 C 18,1 C 20,2 C 20,2 C 2,0 C 66 % 70 % 53 % 1017,1 hPa 0,0 l/m 1,3 km/h (1 Bft) S 180 0 min 0,0 UV-I 11,7 C 20,2 C 0,0 km/h (0 Bft)
13.06.2014 17:50 18,1 C 26,6 C 17,9 C 19,7 C 19,7 C 1,6 C 65 % 69 % 42 % 1017,1 hPa 0,0 l/m 2,1 km/h (1 Bft) W-SW 247 0 min 0,0 UV-I 11,4 C 19,7 C 4,8 km/h (1 Bft)
13.06.2014 17:55 18,1 C 26,6 C 17,9 C 19,6 C 19,6 C 1,5 C 66 % 69 % 39 % 1017,1 hPa 0,0 l/m 2,4 km/h (1 Bft) S-SO 157 0 min 0,0 UV-I 11,6 C 19,6 C 1,9 km/h (1 Bft)
13.06.2014 18:00 18,1 C 26,6 C 18,1 C 19,6 C 19,6 C 1,5 C 66 % 70 % 39 % 1016,8 hPa 0,0 l/m 2,1 km/h (1 Bft) S-SW 202 0 min 0,0 UV-I 11,6 C 19,6 C 3,4 km/h (1 Bft)
13.06.2014 18:05 18,1 C 26,6 C 18,0 C 19,6 C 19,6 C 1,5 C 66 % 70 % 39 % 1016,8 hPa 0,0 l/m 1,8 km/h (1 Bft) N-NW 337 0 min 0,0 UV-I 11,6 C 19,6 C 4,3 km/h (1 Bft)
13.06.2014 18:10 18,1 C 26,7 C 18,0 C 19,4 C 19,4 C 1,3 C 66 % 70 % 34 % 1016,8 hPa 0,0 l/m 2,3 km/h (1 Bft) N-NO 22 0 min 0,0 UV-I 11,6 C 19,4 C 3,5 km/h (1 Bft)
13.06.2014 18:15 18,0 C 26,7 C 17,9 C 19,0 C 19,0 C 1,0 C 66 % 69 % 26 % 1016,8 hPa 0,0 l/m 3,9 km/h (1 Bft) NO 45 0 min 0,0 UV-I 11,6 C 19,0 C 2,1 km/h (1 Bft)
13.06.2014 18:20 17,9 C 26,6 C 17,6 C 18,5 C 18,5 C 0,6 C 65 % 68 % 16 % 1017,7 hPa 0,0 l/m 4,8 km/h (1 Bft) S-SW 202 0 min 0,0 UV-I 11,2 C 18,5 C 8,2 km/h (2 Bft)
13.06.2014 18:25 17,7 C 26,6 C 17,5 C 18,3 C 18,3 C 0,6 C 65 % 68 % 16 % 1017,7 hPa 0,0 l/m 3,7 km/h (1 Bft) N-NO 22 0 min 0,0 UV-I 11,0 C 18,3 C 1,9 km/h (1 Bft)
13.06.2014 18:30 17,5 C 26,6 C 17,3 C 18,1 C 18,1 C 0,6 C 65 % 69 % 16 % 1017,7 hPa 0,0 l/m 2,7 km/h (1 Bft) NW 315 0 min 0,0 UV-I 10,8 C 18,1 C 3,7 km/h (1 Bft)
13.06.2014 18:35 17,4 C 26,6 C 17,2 C 17,9 C 17,9 C 0,5 C 65 % 68 % 13 % 1017,7 hPa 0,0 l/m 3,1 km/h (1 Bft) N-NO 22 0 min 0,0 UV-I 10,8 C 17,9 C 4,3 km/h (1 Bft)
13.06.2014 18:40 17,3 C 26,6 C 17,2 C 17,7 C 17,7 C 0,4 C 65 % 69 % 11 % 1017,1 hPa 0,0 l/m 2,6 km/h (1 Bft) W-SW 247 0 min 0,0 UV-I 10,7 C 17,7 C 4,7 km/h (1 Bft)
13.06.2014 18:45 17,3 C 26,6 C 17,1 C 17,6 C 17,6 C 0,3 C 65 % 68 % 8 % 1017,1 hPa 0,0 l/m 1,9 km/h (1 Bft) SW 225 0 min 0,0 UV-I 10,7 C 17,6 C 0,0 km/h (0 Bft)
13.06.2014 18:50 17,1 C 26,6 C 17,0 C 17,6 C 17,6 C 0,5 C 65 % 69 % 13 % 1017,1 hPa 0,0 l/m 2,4 km/h (1 Bft) SW 225 0 min 0,0 UV-I 10,5 C 17,6 C 3,1 km/h (1 Bft)
13.06.2014 18:55 17,1 C 26,6 C 17,1 C 17,7 C 17,7 C 0,6 C 66 % 69 % 16 % 1017,1 hPa 0,0 l/m 1,8 km/h (1 Bft) SW 225 0 min 0,0 UV-I 10,7 C 17,7 C 3,5 km/h (1 Bft)
13.06.2014 19:00 17,0 C 26,6 C 17,2 C 17,8 C 17,8 C 0,8 C 66 % 69 % 21 % 1016,4 hPa 0,0 l/m 1,4 km/h (1 Bft) W-SW 247 0 min 0,0 UV-I 10,6 C 17,8 C 1,6 km/h (1 Bft)
13.06.2014 19:05 17,0 C 26,6 C 17,2 C 17,9 C 17,9 C 0,9 C 66 % 69 % 24 % 1016,4 hPa 0,0 l/m 2,1 km/h (1 Bft) W-SW 247 0 min 0,0 UV-I 10,6 C 17,9 C 3,4 km/h (1 Bft)
13.06.2014 19:10 17,1 C 26,6 C 17,2 C 17,9 C 17,9 C 0,8 C 66 % 70 % 21 % 1016,4 hPa 0,0 l/m 2,1 km/h (1 Bft) W-SW 247 0 min 0,0 UV-I 10,7 C 17,9 C 2,1 km/h (1 Bft)
13.06.2014 19:15 17,1 C 26,6 C 17,2 C 17,9 C 17,9 C 0,8 C 66 % 70 % 21 % 1016,4 hPa 0,0 l/m 2,1 km/h (1 Bft) W-SW 247 0 min 0,0 UV-I 10,7 C 17,9 C 2,3 km/h (1 Bft)
13.06.2014 19:20 17,1 C 26,6 C 17,2 C 17,9 C 17,9 C 0,8 C 67 % 70 % 21 % 1016,5 hPa 0,0 l/m 2,1 km/h (1 Bft) S 180 0 min 0,0 UV-I 10,9 C 17,9 C 3,9 km/h (1 Bft)
13.06.2014 19:25 17,2 C 26,6 C 17,2 C 17,9 C 17,9 C 0,7 C 67 % 71 % 18 % 1016,5 hPa 0,0 l/m 2,1 km/h (1 Bft) S 180 0 min 0,0 UV-I 11,0 C 17,9 C 2,9 km/h (1 Bft)
13.06.2014 19:30 17,3 C 26,6 C 17,2 C 17,9 C 17,9 C 0,6 C 66 % 70 % 16 % 1016,5 hPa 0,0 l/m 2,6 km/h (1 Bft) NW 315 0 min 0,0 UV-I 10,9 C 17,9 C 2,4 km/h (1 Bft)
13.06.2014 19:35 17,2 C 26,6 C 17,1 C 17,8 C 17,8 C 0,6 C 67 % 70 % 16 % 1016,5 hPa 0,0 l/m 2,7 km/h (1 Bft) SW 225 0 min 0,0 UV-I 11,0 C 17,8 C 6,6 km/h (2 Bft)
13.06.2014 19:40 17,2 C 26,6 C 17,3 C 17,8 C 17,8 C 0,6 C 67 % 71 % 16 % 1016,4 hPa 0,0 l/m 2,6 km/h (1 Bft) W-SW 247 0 min 0,0 UV-I 11,0 C 17,8 C 5,0 km/h (1 Bft)
13.06.2014 19:45 17,2 C 26,6 C 17,2 C 17,8 C 17,8 C 0,6 C 67 % 71 % 16 % 1016,4 hPa 0,0 l/m 2,6 km/h (1 Bft) S-SW 202 0 min 0,0 UV-I 11,0 C 17,8 C 2,6 km/h (1 Bft)
13.06.2014 19:50 17,4 C 26,6 C 17,3 C 18,4 C 18,4 C 1,0 C 67 % 71 % 26 % 1016,4 hPa 0,0 l/m 2,4 km/h (1 Bft) W 270 0 min 0,0 UV-I 11,2 C 18,4 C 3,1 km/h (1 Bft)
13.06.2014 19:55 17,5 C 26,6 C 17,5 C 19,3 C 19,3 C 1,8 C 67 % 71 % 47 % 1016,4 hPa 0,0 l/m 2,4 km/h (1 Bft) S 180 0 min 0,0 UV-I 11,3 C 19,3 C 4,2 km/h (1 Bft)
13.06.2014 20:00 17,6 C 26,6 C 17,6 C 20,3 C 20,3 C 2,7 C 67 % 71 % 71 % 1016,5 hPa 0,0 l/m 3,1 km/h (1 Bft) S-SW 202 5 min 0,0 UV-I 11,4 C 20,3 C 3,7 km/h (1 Bft)
13.06.2014 20:05 17,6 C 26,6 C 17,7 C 20,5 C 20,5 C 2,9 C 67 % 71 % 76 % 1016,5 hPa 0,0 l/m 3,5 km/h (1 Bft) S 180 5 min 0,0 UV-I 11,4 C 20,5 C 3,9 km/h (1 Bft)
13.06.2014 20:10 17,6 C 26,6 C 17,7 C 19,5 C 19,5 C 1,9 C 67 % 70 % 50 % 1016,5 hPa 0,0 l/m 3,9 km/h (1 Bft) W 270 5 min 0,0 UV-I 11,4 C 19,5 C 4,0 km/h (1 Bft)
13.06.2014 20:15 17,5 C 26,6 C 17,6 C 18,7 C 18,7 C 1,2 C 67 % 70 % 32 % 1016,5 hPa 0,0 l/m 4,2 km/h (1 Bft) S 180 0 min 0,0 UV-I 11,3 C 18,7 C 5,1 km/h (1 Bft)
13.06.2014 20:20 17,5 C 26,6 C 17,5 C 17,9 C 17,9 C 0,4 C 68 % 71 % 11 % 1016,4 hPa 0,0 l/m 3,7 km/h (1 Bft) S 180 0 min 0,0 UV-I 11,5 C 17,9 C 4,8 km/h (1 Bft)
13.06.2014 20:25 17,3 C 26,6 C 17,4 C 17,5 C 17,5 C 0,2 C 68 % 71 % 5 % 1016,4 hPa 0,0 l/m 3,5 km/h (1 Bft) S 180 0 min 0,0 UV-I 11,3 C 17,5 C 6,1 km/h (2 Bft)
13.06.2014 20:30 17,2 C 26,6 C 17,3 C 17,2 C 17,1 C 0,0 C 68 % 71 % 0 % 1016,4 hPa 0,0 l/m 4,0 km/h (1 Bft) S-SO 157 0 min 0,0 UV-I 11,2 C 17,1 C 7,2 km/h (2 Bft)
13.06.2014 20:35 17,2 C 26,6 C 17,3 C 17,1 C 16,9 C 0,0 C 67 % 70 % 0 % 1016,4 hPa 0,0 l/m 4,7 km/h (1 Bft) S 180 0 min 0,0 UV-I 11,0 C 16,9 C 11,4 km/h (2 Bft)
13.06.2014 20:40 17,1 C 26,6 C 17,1 C 17,0 C 16,7 C 0,0 C 67 % 70 % 0 % 1016,3 hPa 0,0 l/m 5,1 km/h (1 Bft) S-SW 202 0 min 0,0 UV-I 10,9 C 16,7 C 5,1 km/h (1 Bft)
13.06.2014 20:45 16,9 C 26,6 C 17,0 C 16,8 C 16,6 C 0,0 C 67 % 71 % 0 % 1016,3 hPa 0,0 l/m 4,8 km/h (1 Bft) SO 135 0 min 0,0 UV-I 10,7 C 16,6 C 2,6 km/h (1 Bft)
13.06.2014 20:50 16,8 C 26,6 C 16,8 C 16,6 C 16,3 C 0,0 C 68 % 71 % 0 % 1016,3 hPa 0,0 l/m 3,5 km/h (1 Bft) SW 225 0 min 0,0 UV-I 10,9 C 16,3 C 4,2 km/h (1 Bft)
13.06.2014 20:55 16,7 C 26,6 C 16,8 C 16,5 C 16,1 C 0,0 C 68 % 71 % 0 % 1016,3 hPa 0,0 l/m 3,1 km/h (1 Bft) SW 225 0 min 0,0 UV-I 10,8 C 16,1 C 2,7 km/h (1 Bft)
13.06.2014 21:00 16,6 C 26,6 C 16,6 C 16,3 C 15,8 C 0,0 C 68 % 72 % 0 % 1016,6 hPa 0,0 l/m 2,9 km/h (1 Bft) N 360 0 min 0,0 UV-I 10,7 C 15,8 C 2,6 km/h (1 Bft)
13.06.2014 21:05 16,5 C 26,6 C 16,4 C 16,2 C 15,6 C 0,0 C 68 % 72 % 0 % 1016,6 hPa 0,0 l/m 2,4 km/h (1 Bft) W-SW 247 0 min 0,0 UV-I 10,6 C 15,6 C 4,7 km/h (1 Bft)
13.06.2014 21:10 16,3 C 26,6 C 16,3 C 16,0 C 15,3 C 0,0 C 69 % 73 % 0 % 1016,6 hPa 0,0 l/m 1,4 km/h (1 Bft) S 180 0 min 0,0 UV-I 10,6 C 15,3 C 0,0 km/h (0 Bft)
13.06.2014 21:15 16,3 C 26,6 C 16,3 C 15,9 C 15,1 C 0,0 C 69 % 73 % 0 % 1016,6 hPa 0,0 l/m 1,3 km/h (1 Bft) SW 225 0 min 0,0 UV-I 10,6 C 15,1 C 2,1 km/h (1 Bft)
13.06.2014 21:20 16,1 C 26,6 C 16,0 C 15,7 C 14,8 C 0,0 C 70 % 74 % 0 % 1016,3 hPa 0,0 l/m 0,8 km/h (0 Bft) SW 225 0 min 0,0 UV-I 10,6 C 14,8 C 0,0 km/h (0 Bft)
13.06.2014 21:25 15,9 C 26,6 C 15,9 C 15,5 C 14,7 C 0,0 C 70 % 74 % 0 % 1016,3 hPa 0,0 l/m 0,6 km/h (0 Bft) W-SW 247 0 min 0,0 UV-I 10,4 C 14,7 C 0,0 km/h (0 Bft)
13.06.2014 21:30 15,7 C 26,6 C 15,6 C 15,2 C 14,3 C 0,0 C 70 % 74 % 0 % 1016,3 hPa 0,0 l/m 0,3 km/h (0 Bft) W 270 0 min 0,0 UV-I 10,2 C 14,3 C 0,0 km/h (0 Bft)
13.06.2014 21:35 15,7 C 26,7 C 15,5 C 15,1 C 14,0 C 0,0 C 71 % 74 % 0 % 1016,3 hPa 0,0 l/m 0,0 km/h (0 Bft) SO 135 0 min 0,0 UV-I 10,5 C 14,0 C 0,0 km/h (0 Bft)
13.06.2014 21:40 15,3 C 26,7 C 15,2 C 14,8 C 13,7 C 0,0 C 72 % 75 % 0 % 1016,4 hPa 0,0 l/m 0,0 km/h (0 Bft) O-NO 67 0 min 0,0 UV-I 10,3 C 13,7 C 0,0 km/h (0 Bft)
13.06.2014 21:45 15,2 C 26,7 C 15,1 C 14,6 C 13,5 C 0,0 C 72 % 76 % 0 % 1016,4 hPa 0,0 l/m 0,0 km/h (0 Bft) O 90 0 min 0,0 UV-I 10,2 C 13,5 C 0,0 km/h (0 Bft)
13.06.2014 21:50 14,9 C 26,7 C 14,8 C 14,3 C 13,2 C 0,0 C 73 % 76 % 0 % 1016,4 hPa 0,0 l/m 0,0 km/h (0 Bft) O 90 0 min 0,0 UV-I 10,1 C 13,2 C 0,0 km/h (0 Bft)
13.06.2014 21:55 14,7 C 26,7 C 14,7 C 14,2 C 13,1 C 0,0 C 73 % 76 % 0 % 1016,4 hPa 0,0 l/m 0,0 km/h (0 Bft) O 90 0 min 0,0 UV-I 9,9 C 13,1 C 0,0 km/h (0 Bft)
13.06.2014 22:00 14,5 C 26,7 C 14,5 C 13,9 C 12,8 C 0,0 C 74 % 77 % 0 % 1016,6 hPa 0,0 l/m 0,0 km/h (0 Bft) O-SO 112 0 min 0,0 UV-I 9,9 C 12,8 C 0,0 km/h (0 Bft)
13.06.2014 22:05 14,4 C 26,7 C 14,4 C 13,8 C 12,6 C 0,0 C 75 % 77 % 0 % 1016,6 hPa 0,0 l/m 0,0 km/h (0 Bft) O 90 0 min 0,0 UV-I 10,0 C 12,6 C 0,0 km/h (0 Bft)
13.06.2014 22:10 14,3 C 26,7 C 14,3 C 13,7 C 12,5 C 0,0 C 76 % 77 % 0 % 1016,6 hPa 0,0 l/m 0,0 km/h (0 Bft) O 90 0 min 0,0 UV-I 10,1 C 12,5 C 0,0 km/h (0 Bft)
13.06.2014 22:15 14,1 C 26,7 C 14,3 C 13,5 C 12,4 C 0,0 C 76 % 78 % 0 % 1016,6 hPa 0,0 l/m 0,0 km/h (0 Bft) O-NO 67 0 min 0,0 UV-I 9,9 C 12,4 C 0,0 km/h (0 Bft)
13.06.2014 22:20 13,8 C 26,7 C 14,0 C 13,3 C 12,4 C 0,0 C 77 % 79 % 0 % 1016,3 hPa 0,0 l/m 0,0 km/h (0 Bft) O-NO 67 0 min 0,0 UV-I 9,8 C 12,4 C 0,0 km/h (0 Bft)
13.06.2014 22:25 13,8 C 26,7 C 14,0 C 13,3 C 12,4 C 0,0 C 77 % 79 % 0 % 1016,3 hPa 0,0 l/m 0,2 km/h (0 Bft) O-NO 67 0 min 0,0 UV-I 9,8 C 12,4 C 0,0 km/h (0 Bft)
13.06.2014 22:30 13,6 C 26,7 C 13,9 C 13,2 C 12,4 C 0,0 C 78 % 79 % 0 % 1016,3 hPa 0,0 l/m 0,2 km/h (0 Bft) O-NO 67 0 min 0,0 UV-I 9,8 C 12,4 C 0,0 km/h (0 Bft)
13.06.2014 22:35 13,6 C 26,6 C 13,9 C 13,2 C 12,4 C 0,0 C 78 % 79 % 0 % 1016,3 hPa 0,0 l/m 0,0 km/h (0 Bft) O-NO 67 0 min 0,0 UV-I 9,8 C 12,4 C 0,0 km/h (0 Bft)
13.06.2014 22:40 13,5 C 26,6 C 13,7 C 13,1 C 12,2 C 0,0 C 78 % 80 % 0 % 1016,4 hPa 0,0 l/m 0,0 km/h (0 Bft) W-SW 247 0 min 0,0 UV-I 9,7 C 12,2 C 0,0 km/h (0 Bft)
13.06.2014 22:45 13,5 C 26,6 C 13,6 C 13,0 C 12,0 C 0,0 C 79 % 80 % 0 % 1016,4 hPa 0,0 l/m 0,0 km/h (0 Bft) S-SW 202 0 min 0,0 UV-I 9,9 C 12,0 C 0,0 km/h (0 Bft)
13.06.2014 22:50 13,2 C 26,6 C 13,4 C 12,7 C 11,6 C 0,0 C 79 % 80 % 0 % 1016,4 hPa 0,0 l/m 0,0 km/h (0 Bft) SW 225 0 min 0,0 UV-I 9,6 C 11,6 C 0,0 km/h (0 Bft)
13.06.2014 22:55 13,2 C 26,6 C 13,3 C 12,6 C 11,5 C 0,0 C 79 % 80 % 0 % 1016,4 hPa 0,0 l/m 0,0 km/h (0 Bft) W 270 0 min 0,0 UV-I 9,6 C 11,5 C 0,0 km/h (0 Bft)
13.06.2014 23:00 13,1 C 26,6 C 13,3 C 12,6 C 11,5 C 0,0 C 80 % 80 % 0 % 1016,4 hPa 0,0 l/m 0,0 km/h (0 Bft) W 270 0 min 0,0 UV-I 9,7 C 11,5 C 0,0 km/h (0 Bft)
13.06.2014 23:05 12,9 C 26,6 C 13,2 C 12,4 C 11,5 C 0,0 C 80 % 81 % 0 % 1016,4 hPa 0,0 l/m 0,0 km/h (0 Bft) SW 225 0 min 0,0 UV-I 9,5 C 11,5 C 0,0 km/h (0 Bft)
13.06.2014 23:10 12,8 C 26,6 C 13,2 C 12,3 C 11,4 C 0,0 C 81 % 81 % 0 % 1016,4 hPa 0,0 l/m 0,0 km/h (0 Bft) W 270 0 min 0,0 UV-I 9,6 C 11,4 C 0,0 km/h (0 Bft)
13.06.2014 23:15 12,8 C 26,7 C 13,2 C 12,3 C 11,4 C 0,0 C 81 % 81 % 0 % 1016,4 hPa 0,0 l/m 0,0 km/h (0 Bft) N-NO 22 0 min 0,0 UV-I 9,6 C 11,4 C 0,0 km/h (0 Bft)
13.06.2014 23:20 12,7 C 26,7 C 13,1 C 12,3 C 11,4 C 0,0 C 81 % 82 % 0 % 1016,1 hPa 0,0 l/m 0,0 km/h (0 Bft) N-NO 22 0 min 0,0 UV-I 9,5 C 11,4 C 0,0 km/h (0 Bft)
13.06.2014 23:25 12,7 C 26,7 C 13,1 C 12,3 C 11,4 C 0,0 C 81 % 82 % 0 % 1016,1 hPa 0,0 l/m 0,0 km/h (0 Bft) NW 315 0 min 0,0 UV-I 9,5 C 11,4 C 0,0 km/h (0 Bft)
13.06.2014 23:30 12,5 C 26,7 C 12,9 C 12,1 C 11,2 C 0,0 C 82 % 82 % 0 % 1016,1 hPa 0,0 l/m 0,0 km/h (0 Bft) N-NW 337 0 min 0,0 UV-I 9,5 C 11,2 C 0,0 km/h (0 Bft)
13.06.2014 23:35 12,4 C 26,7 C 12,9 C 12,0 C 11,2 C 0,0 C 82 % 82 % 0 % 1016,1 hPa 0,0 l/m 0,0 km/h (0 Bft) N-NW 337 0 min 0,0 UV-I 9,4 C 11,2 C 0,0 km/h (0 Bft)
13.06.2014 23:40 12,3 C 26,7 C 12,8 C 11,9 C 11,1 C 0,0 C 82 % 82 % 0 % 1016,6 hPa 0,0 l/m 0,0 km/h (0 Bft) N-NO 22 0 min 0,0 UV-I 9,3 C 11,1 C 0,0 km/h (0 Bft)
13.06.2014 23:45 12,3 C 26,7 C 12,8 C 11,9 C 11,1 C 0,0 C 83 % 82 % 0 % 1016,6 hPa 0,0 l/m 0,0 km/h (0 Bft) NW 315 0 min 0,0 UV-I 9,5 C 11,1 C 0,0 km/h (0 Bft)
13.06.2014 23:50 12,3 C 26,7 C 12,7 C 11,9 C 11,0 C 0,0 C 83 % 82 % 0 % 1016,6 hPa 0,0 l/m 0,0 km/h (0 Bft) N-NO 22 0 min 0,0 UV-I 9,5 C 11,0 C 0,0 km/h (0 Bft)
13.06.2014 23:55 12,1 C 26,7 C 12,7 C 11,7 C 10,9 C 0,0 C 83 % 82 % 0 % 1016,6 hPa 0,0 l/m 0,0 km/h (0 Bft) N-NW 337 0 min 0,0 UV-I 9,3 C 10,9 C 0,0 km/h (0 Bft)
_ Min-Zeit 05:35 09:40 05:25 04:55 04:55 00:00 13:15 13:15 00:00 23:20 - 00:00 - - - 00:00 05:35 04:55 00:00
Minimum _ 8,9 C 26,1 C 10,7 C 9,0 C 9,0 C 0,0 C 55 % 60 % 0 % 1016,1 hPa - 0,0 km/h (0 Bft) - - - 0,0 UV-I 6,9 C 9,0 C 0,0 km/h (0 Bft)
_ Max-Zeit 13:50 00:00 13:50 10:00 10:00 07:40 07:10 05:50 07:00 00:40 00:00 12:30 - - 07:00 07:25 08:45 10:00 12:30
Maximum _ 20,8 C 27,4 C 21,1 C 26,5 C 26,5 C 11,1 C 90 % 86 % 100 % 1021,7 hPa 0,0 l/m 6,3 km/h
S-SW (2 Bft)
- - 5 min 2,0 UV-I 12,8 C 26,5 C 15,1 km/h
S-SW (3 Bft)
Durchschnitt _ 15,2 C 26,7 C 15,5 C 17,5 C 17,2 C 2,4 C 73 % 75 % 38 % 1018,8 hPa #0,0 l/m 1,7 km/h (1 Bft) S - #6:55 h 1,3 UV-I 10,1 C 17,2 C 2,3 km/h (1 Bft)
2014 www.wetterstation-wechselburg.de